Location: *
(39.6167°S, 171.5333°W)
Time: 23:23:44
(UTC+00:00)

Cosmos 1092 Rocket - Pass Details

Date: 13 May 2021
Orbit: 953 x 996 km, 82.9° (Epoch: 15 June)

Event Time Altitude Azimuth Distance (km) Brightness Sun altitude
Rises 16:17:29 0° 185° (S) 3,742 7.0 -24.0°
Reaches altitude 10° 16:20:04 10° 182° (S) 2,790 6.3 -23.5°
Maximum altitude 16:26:28 68° 99° (E) 1,078 4.4 -22.3°
Drops below altitude 10° 16:32:47 10° 16° (NNE) 2,761 6.6 -21.1°
Sets 16:35:19 0° 13° (NNE) 3,700 7.3 -20.6°
